Claremore, OK

11:45 PM CDT on September 29, 2016 (GMT -0500)
Claremore Regional

Weather History for KGCM - May, 2013

Change the Weather History Date:

Monday, May 6, 2013

  Actual Average (KTUL) Record (KTUL)
Temperature  
Mean Temperature 54 °F 67 °F  
Max Temperature 66 °F 77 °F 93 °F (2003)
Min Temperature 41 °F 56 °F 36 °F (1944)
Degree Days  
Heating Degree Days 12    
Cooling Degree Days 0 4  
Month to date cooling degree days 19  
Year to date cooling degree days 84  
Growing Degree Days 4 (Base 50)    
Moisture  
Dew Point 48 °F    
Average Humidity 84    
Maximum Humidity 100    
Minimum Humidity 60    
Precipitation  
Precipitation 0.00 in 0.19 in 3.15 in (1899)
Month to date precipitation 1.11  
Year to date precipitation 11.70  
Sea Level Pressure  
Sea Level Pressure 30.11 in    
Wind  
Wind Speed 4 mph (North)    
Max Wind Speed 9 mph    
Max Gust Speed -    
Visibility 7 miles    
Events Fog    
T = Trace of Precipitation, MM = Missing Value Source: NWS Daily Summary

Daily Weather History Graph

Daily Weather History Graph

Search for Another Location

Airport or City:

Trip Planner

Search our weather history database for the weather conditions in past years. The results will help you decide how hot, cold, wet, or windy it might be!

Date:

Astronomy

May. 06, 2013 Rise Set
Actual Time 6:23 AM CDT 8:14 PM CDT
Civil Twilight 5:55 AM CDT 8:42 PM CDT
Nautical Twilight 5:21 AM CDT 9:16 PM CDT
Astronomical Twilight 4:45 AM CDT 9:52 PM CDT
Moon 4:20 AM CDT (5/6) 5:19 PM CDT (5/6)
Length of Visible Light 14h 46m
Length of Day
13h 50m
Waning Crescent, 11% of the Moon is Illuminated
May 6
Waning Crescent
May 9
New
May 17
First Quarter
May 24
Full
May 31
Last Quarter

Hourly Weather History & Observations

Time (CDT) Temp. Windchill Dew Point Humidity Pressure Visibility Wind Dir Wind Speed Gust Speed Precip Events Conditions
12:15 AM 50.0 °F - 46.4 °F 87% 30.11 in 10.0 mi North 3.5 mph - N/A   Clear
12:35 AM 48.2 °F - 46.4 °F 93% 30.11 in 10.0 mi North 3.5 mph - N/A   Clear
12:55 AM 48.2 °F - 44.6 °F 87% 30.11 in 10.0 mi NNE 3.5 mph - N/A   Scattered Clouds
1:15 AM 46.4 °F - 46.4 °F 100% 30.10 in 10.0 mi Calm Calm - N/A   Overcast
1:35 AM 48.2 °F - 46.4 °F 93% 30.10 in 10.0 mi Calm Calm - N/A   Mostly Cloudy
1:55 AM 48.2 °F - 46.4 °F 93% 30.09 in 10.0 mi Calm Calm - N/A   Mostly Cloudy
2:15 AM 44.6 °F - 42.8 °F 93% 30.09 in 2.5 mi Calm Calm - N/A   Scattered Clouds
2:35 AM 44.6 °F - 44.6 °F 100% 30.09 in 4.0 mi Calm Calm - N/A   Scattered Clouds
2:55 AM 44.6 °F - 44.6 °F 100% 30.09 in 2.0 mi Calm Calm - N/A   Mostly Cloudy
3:15 AM 42.8 °F - 42.8 °F 100% 30.08 in 0.5 mi Calm Calm - N/A Fog Fog
3:35 AM 42.8 °F 41.1 °F 41.0 °F 93% 30.07 in 0.2 mi WNW 3.5 mph - N/A Fog Fog
3:55 AM 42.8 °F 40.1 °F 41.0 °F 93% 30.08 in 0.2 mi West 4.6 mph - N/A Fog Fog
4:15 AM 41.0 °F 38.0 °F 41.0 °F 100% 30.08 in 0.2 mi WNW 4.6 mph - N/A Fog Fog
4:35 AM 42.8 °F 41.1 °F 42.8 °F 100% 30.09 in 1.2 mi NW 3.5 mph - N/A   Scattered Clouds
4:55 AM 44.6 °F - 42.8 °F 93% 30.09 in 1.2 mi Calm Calm - N/A   Overcast
5:15 AM 46.4 °F 43.5 °F 46.4 °F 100% 30.09 in 4.0 mi North 5.8 mph - N/A   Overcast
5:35 AM 46.4 °F 45.2 °F 46.4 °F 100% 30.09 in 4.0 mi North 3.5 mph - N/A   Overcast
5:55 AM 46.4 °F - 46.4 °F 100% 30.10 in 4.0 mi Calm Calm - N/A   Overcast
6:15 AM 46.4 °F 45.2 °F 46.4 °F 100% 30.10 in 4.0 mi North 3.5 mph - N/A   Overcast
6:35 AM 46.4 °F 42.4 °F 46.4 °F 100% 30.10 in 4.0 mi North 8.1 mph - N/A   Overcast
6:55 AM 46.4 °F 41.9 °F 46.4 °F 100% 30.11 in 4.0 mi NNE 9.2 mph - N/A   Overcast
7:15 AM 46.4 °F 44.3 °F 46.4 °F 100% 30.12 in 4.0 mi NNE 4.6 mph - N/A   Overcast
7:35 AM 48.2 °F - 46.4 °F 93% 30.13 in 4.0 mi North 8.1 mph - N/A   Overcast
7:55 AM 48.2 °F - 46.4 °F 93% 30.13 in 5.0 mi North 5.8 mph - N/A   Overcast
8:15 AM 50.0 °F - 46.4 °F 87% 30.14 in 4.0 mi NW 4.6 mph - N/A   Overcast
8:35 AM 50.0 °F - 46.4 °F 87% 30.14 in 5.0 mi North 8.1 mph - N/A   Overcast
8:55 AM 50.0 °F - 46.4 °F 87% 30.14 in 7.0 mi NNE 5.8 mph - N/A   Overcast
9:15 AM 50.0 °F - 46.4 °F 87% 30.14 in 7.0 mi NNW 5.8 mph - N/A   Overcast
9:35 AM 51.8 °F - 48.2 °F 88% 30.15 in 7.0 mi NNE 6.9 mph - N/A   Overcast
9:55 AM 51.8 °F - 48.2 °F 88% 30.15 in 10.0 mi NNE 4.6 mph - N/A   Overcast
10:15 AM 51.8 °F - 48.2 °F 88% 30.15 in 10.0 mi NNE 8.1 mph - N/A   Overcast
10:35 AM 53.6 °F - 48.2 °F 82% 30.15 in 10.0 mi NNW 3.5 mph - N/A   Overcast
10:55 AM 53.6 °F - 48.2 °F 82% 30.16 in 10.0 mi NW 8.1 mph - N/A   Overcast
11:15 AM 53.6 °F - 48.2 °F 82% 30.16 in 10.0 mi North 8.1 mph - N/A   Overcast
11:35 AM 53.6 °F - 48.2 °F 82% 30.16 in 10.0 mi NNW 8.1 mph - N/A   Overcast
11:55 AM 55.4 °F - 48.2 °F 77% 30.16 in 10.0 mi North 5.8 mph - N/A   Overcast
12:15 PM 55.4 °F - 48.2 °F 77% 30.16 in 10.0 mi NW 8.1 mph - N/A   Overcast
12:35 PM 55.4 °F - 50.0 °F 82% 30.15 in 10.0 mi WNW 6.9 mph - N/A   Overcast
12:55 PM 55.4 °F - 50.0 °F 82% 30.14 in 10.0 mi NNW 5.8 mph - N/A   Overcast
1:15 PM 59.0 °F - 50.0 °F 72% 30.14 in 10.0 mi NNE 3.5 mph - N/A   Mostly Cloudy
1:35 PM 59.0 °F - 50.0 °F 72% 30.13 in 10.0 mi NE 6.9 mph - N/A   Mostly Cloudy
1:55 PM 59.0 °F - 50.0 °F 72% 30.13 in 10.0 mi WNW 6.9 mph - N/A   Scattered Clouds
2:15 PM 60.8 °F - 51.8 °F 72% 30.12 in 10.0 mi West 8.1 mph - N/A   Mostly Cloudy
2:35 PM 60.8 °F - 50.0 °F 68% 30.12 in 10.0 mi NNW 3.5 mph - N/A   Scattered Clouds
2:55 PM 62.6 °F - 51.8 °F 68% 30.11 in 10.0 mi NW 8.1 mph - N/A   Scattered Clouds
3:15 PM 62.6 °F - 51.8 °F 68% 30.10 in 10.0 mi West 5.8 mph - N/A   Clear
3:35 PM 62.6 °F - 51.8 °F 68% 30.09 in 10.0 mi West 6.9 mph - N/A   Clear
3:55 PM 64.4 °F - 51.8 °F 64% 30.08 in 10.0 mi West 8.1 mph - N/A   Clear
4:15 PM 64.4 °F - 51.8 °F 64% 30.07 in 10.0 mi NNW 3.5 mph - N/A   Clear
4:35 PM 64.4 °F - 51.8 °F 64% 30.07 in 10.0 mi NW 4.6 mph - N/A   Clear
5:15 PM 64.4 °F - 51.8 °F 64% 30.06 in 10.0 mi NW 4.6 mph - N/A   Clear
5:35 PM 66.2 °F - 51.8 °F 60% 30.06 in 10.0 mi WNW 8.1 mph - N/A   Clear
5:55 PM 66.2 °F - 51.8 °F 60% 30.06 in 10.0 mi NW 6.9 mph - N/A   Clear
6:15 PM 66.2 °F - 51.8 °F 60% 30.06 in 10.0 mi WNW 4.6 mph - N/A   Clear
6:35 PM 66.2 °F - 51.8 °F 60% 30.05 in 10.0 mi North 4.6 mph - N/A   Clear
6:55 PM 64.4 °F - 51.8 °F 64% 30.05 in 10.0 mi NNE 5.8 mph - N/A   Clear
7:15 PM 64.4 °F - 51.8 °F 64% 30.05 in 10.0 mi North 4.6 mph - N/A   Clear
7:35 PM 64.4 °F - 51.8 °F 64% 30.06 in 10.0 mi NE 5.8 mph - N/A   Clear
7:55 PM 60.8 °F - 53.6 °F 77% 30.07 in 10.0 mi ENE 8.1 mph - N/A   Clear
8:15 PM 59.0 °F - 53.6 °F 82% 30.08 in 7.0 mi East 8.1 mph - N/A   Clear
8:35 PM 57.2 °F - 51.8 °F 82% 30.09 in 7.0 mi ENE 5.8 mph - N/A   Clear
8:55 PM 55.4 °F - 51.8 °F 88% 30.09 in 7.0 mi ENE 5.8 mph - N/A   Clear
9:15 PM 55.4 °F - 51.8 °F 88% 30.09 in 7.0 mi ENE 4.6 mph - N/A   Clear
9:55 PM 53.6 °F - 50.0 °F 88% 30.11 in 5.0 mi Calm Calm - N/A   Clear
10:15 PM 51.8 °F - 50.0 °F 94% 30.11 in 5.0 mi ENE 4.6 mph - N/A   Clear
10:35 PM 51.8 °F - 50.0 °F 94% 30.11 in 5.0 mi ENE 4.6 mph - N/A   Clear
10:55 PM 51.8 °F - 50.0 °F 94% 30.11 in 5.0 mi NE 3.5 mph - N/A   Clear
11:15 PM 51.8 °F - 50.0 °F 94% 30.11 in 4.0 mi NNE 3.5 mph - N/A   Clear
11:35 PM 50.0 °F - 50.0 °F 100% 30.10 in 3.0 mi Calm Calm - N/A   Clear
11:55 PM 50.0 °F - 46.4 °F 87% 30.10 in 3.0 mi Calm Calm - N/A   Clear